TimeGMT,TemperatureF,Dew PointF,Humidity,Sea Level PressureIn,VisibilityMPH,Wind Direction,Wind SpeedMPH,Gust SpeedMPH,PrecipitationIn,Events,Conditions,WindDirDegrees,DateUTC
12:50 AM,41.0,37.4,87,30.01,-9999.0,SSW,6.9,-,N/A,,Clear,200,2012-11-22 00:50:00
2:50 AM,44.6,41.0,87,30.01,-9999.0,SSW,8.1,-,N/A,,Clear,200,2012-11-22 02:50:00
3:50 AM,44.6,41.0,87,30.01,-9999.0,SSW,8.1,-,N/A,,Clear,200,2012-11-22 03:50:00
4:50 AM,44.6,41.0,87,30.01,-9999.0,SSW,8.1,-,N/A,,Clear,200,2012-11-22 04:50:00
5:20 AM,46.4,44.6,93,29.98,-9999.0,SSW,11.5,-,N/A,,Clear,200,2012-11-22 05:20:00
5:50 AM,50.0,44.6,82,29.98,6.2,South,15.0,-,N/A,,Partly Cloudy,180,2012-11-22 05:50:00
6:20 AM,50.0,44.6,82,29.95,6.2,South,16.1,-,N/A,,Scattered Clouds,190,2012-11-22 06:20:00
6:50 AM,50.0,46.4,87,29.98,6.2,South,13.8,-,N/A,,Mostly Cloudy,180,2012-11-22 06:50:00
7:20 AM,50.0,46.4,87,29.98,6.2,South,13.8,-,N/A,,Mostly Cloudy,180,2012-11-22 07:20:00
7:50 AM,51.8,46.4,82,29.98,6.2,South,15.0,-,N/A,,Mostly Cloudy,190,2012-11-22 07:50:00
8:20 AM,51.8,46.4,82,29.98,6.2,South,15.0,-,N/A,,Mostly Cloudy,190,2012-11-22 08:20:00
8:50 AM,51.8,46.4,82,29.98,6.2,South,13.8,-,N/A,,Scattered Clouds,180,2012-11-22 08:50:00
9:20 AM,53.6,46.4,77,29.95,6.2,South,16.1,-,N/A,,Mostly Cloudy,180,2012-11-22 09:20:00
9:50 AM,53.6,46.4,77,29.95,6.2,South,15.0,-,N/A,,Scattered Clouds,180,2012-11-22 09:50:00
10:20 AM,53.6,48.2,82,29.95,6.2,South,18.4,-,N/A,,Mostly Cloudy,190,2012-11-22 10:20:00
10:50 AM,55.4,48.2,77,29.92,6.2,South,19.6,-,N/A,,Partly Cloudy,180,2012-11-22 10:50:00
11:20 AM,55.4,48.2,77,29.92,6.2,South,19.6,-,N/A,,Partly Cloudy,190,2012-11-22 11:20:00
11:50 AM,55.4,46.4,72,29.92,6.2,South,19.6,-,N/A,,Scattered Clouds,190,2012-11-22 11:50:00
12:20 PM,57.2,46.4,67,29.89,6.2,SSW,21.9,-,N/A,,Scattered Clouds,200,2012-11-22 12:20:00
12:50 PM,57.2,46.4,67,29.89,6.2,South,20.7,-,N/A,,Partly Cloudy,190,2012-11-22 12:50:00
1:20 PM,55.4,46.4,72,29.86,6.2,South,24.2,-,N/A,,Partly Cloudy,190,2012-11-22 13:20:00
1:50 PM,55.4,46.4,72,29.86,6.2,SSW,25.3,-,N/A,,Scattered Clouds,200,2012-11-22 13:50:00
2:20 PM,55.4,44.6,67,29.86,6.2,SSW,21.9,-,N/A,,Scattered Clouds,200,2012-11-22 14:20:00
2:50 PM,53.6,44.6,72,29.86,6.2,SSW,24.2,-,N/A,,Scattered Clouds,200,2012-11-22 14:50:00
3:20 PM,53.6,44.6,72,29.83,6.2,South,23.0,-,N/A,,Scattered Clouds,190,2012-11-22 15:20:00
4:20 PM,51.8,44.6,76,29.83,6.2,South,23.0,-,N/A,,Scattered Clouds,190,2012-11-22 16:20:00
4:50 PM,51.8,44.6,76,29.83,6.2,South,18.4,29.9,N/A,,Scattered Clouds,180,2012-11-22 16:50:00
5:20 PM,51.8,44.6,76,29.80,6.2,South,21.9,33.4,N/A,,Partly Cloudy,190,2012-11-22 17:20:00
5:50 PM,51.8,42.8,71,29.80,6.2,South,20.7,-,N/A,,Partly Cloudy,180,2012-11-22 17:50:00
6:20 PM,51.8,44.6,76,29.77,6.2,South,27.6,-,N/A,,Partly Cloudy,180,2012-11-22 18:20:00
6:50 PM,53.6,42.8,67,29.77,6.2,South,25.3,36.8,N/A,,Partly Cloudy,180,2012-11-22 18:50:00
7:20 PM,53.6,44.6,72,29.74,6.2,South,27.6,-,N/A,,Partly Cloudy,180,2012-11-22 19:20:00
7:50 PM,53.6,42.8,67,29.74,6.2,South,27.6,-,N/A,,Mostly Cloudy,190,2012-11-22 19:50:00
8:20 PM,53.6,44.6,72,29.74,6.2,South,27.6,40.3,N/A,,Mostly Cloudy,190,2012-11-22 20:20:00
8:50 PM,53.6,44.6,72,29.74,6.2,South,26.5,-,N/A,,Mostly Cloudy,190,2012-11-22 20:50:00
9:20 PM,53.6,44.6,72,29.74,6.2,South,24.2,38.0,N/A,,Mostly Cloudy,190,2012-11-22 21:20:00
9:50 PM,53.6,44.6,72,29.74,6.2,South,26.5,39.1,N/A,,Mostly Cloudy,190,2012-11-22 21:50:00
10:20 PM,53.6,44.6,72,29.74,6.2,South,28.8,-,N/A,,Mostly Cloudy,190,2012-11-22 22:20:00
10:50 PM,51.8,44.6,76,29.74,6.2,South,26.5,-,N/A,Rain,Light Rain,190,2012-11-22 22:50:00
11:20 PM,51.8,46.4,82,29.71,6.2,South,25.3,-,N/A,Rain,Light Rain,190,2012-11-22 23:20:00
11:50 PM,51.8,46.4,82,29.71,6.2,South,24.2,36.8,N/A,Rain,Light Rain,190,2012-11-22 23:50:00